Location: Grandview
(34.8900°N, 117.1058°W)
Time: 01:32:49
(UTC-07:00)

ISS - Pass Details

Date: 15 October 2017
Orbit: 401 x 408 km, 51.6° (Epoch: 21 October)

Event Time Altitude Azimuth Distance (km) Brightness Sun altitude
Rises 18:41:01 0° 319° (NW) 2,320 0.6 -6.5°
Reaches altitude 10° 18:43:11 10° 327° (NNW) 1,460 -0.6 -6.9°
Maximum altitude 18:46:17 38° 38° (NE) 631 -3.2 -7.6°
Drops below altitude 10° 18:49:22 10° 109° (ESE) 1,457 -1.6 -8.2°
Enters shadow 18:49:33 - 110° (ESE) 1,530 -1.5 -8.2°
